Location: Aldington
(51.0833°N, 0.9500°E)
Time: 01:10:23
(UTC+00:00)

Daily predictions for brighter satellites

Satellite Brightness Start Highest point End
(mag) Time Altitude Azimuth Time Altitude Azimuth Time Altitude Azimuth
ATLAS 2AS CENTAUR R/B 4.3 01:59:43 33° N 01:59:43 33° N 02:05:04 10° NE
Cosmos 2369 Rocket 4.4 02:24:49 21° NE 02:24:49 21° NE 02:28:52 10° E
Cosmos 2333 Rocket 4.1 02:55:44 25° NNE 02:55:44 25° NNE 02:58:05 10° NNE
USA 215 4.0 02:49:22 10° ENE 02:54:03 48° E 02:54:03 48° E
Cosmos 2322 Rocket 4.5 03:11:58 15° N 03:11:58 15° N 03:13:53 10° N
Cosmos 2237 Rocket 3.4 03:19:52 37° NNE 03:19:52 37° NNE 03:23:13 10° NNE
CZ-4C R/B 3.2 03:21:53 45° NNE 03:21:53 45° NNE 03:26:20 10° NE
Cosmos 2219 Rocket 3.8 03:26:42 26° N 03:26:42 26° N 03:29:33 10° NNE
Cosmos 1943 Rocket 2.7 03:37:57 54° ENE 03:37:57 54° ENE 03:42:56 10° SE
Cosmos 2360 Rocket 4.2 03:39:40 17° NNW 03:39:40 17° NNW 03:42:06 10° N
Cosmos 1605 Rocket 4.4 03:35:53 10° N 03:42:04 59° ENE 03:48:08 10° SSE
Lacrosse 5 3.4 03:45:19 28° SE 03:45:19 28° SE 03:47:41 10° SE
ATLAS CENTAUR R/B 2.8 03:52:19 38° NE 03:52:19 38° NE 03:55:04 10° NE
ATLAS 2AS CENTAUR R/B 4.2 03:47:08 22° NW 03:51:04 34° N 03:57:48 10° ENE
COSMOS 2428 4.2 03:52:41 26° NNW 03:52:41 26° NNW 03:56:09 10° NNE
PAYLOAD A 4.5 03:53:23 10° NNE 03:58:12 55° E 03:58:46 52° SE
Nadezhda 3 Rocket 4.3 04:00:11 54° NNW 04:00:11 54° NNW 04:05:24 10° N
MSX 3.8 03:53:58 10° NNE 03:59:45 79° ESE 04:00:16 72° SSE
CZ-2C R/B 3.3 03:54:48 10° NNE 03:59:52 49° E 04:01:40 34° SSE
SL-16 R/B 2.1 04:01:36 83° ESE 04:01:36 83° ESE 04:07:17 10° NNE
Cosmos 2251 Rocket 3.6 04:03:08 76° E 04:03:08 76° E 04:08:17 10° NNE
ADEOS II 4.1 04:00:11 10° N 04:01:44 17° NNW 04:01:44 17° NNW
IDEFIX/ARIANE 42P 3.1 04:01:42 10° N 04:05:34 47° N 04:05:34 47° N
BREEZE-M DEB (TANK) 3.1 04:09:15 68° SSE 04:09:15 68° SSE 04:18:33 10° ESE
Cosmos 2369 Rocket 2.3 04:06:41 30° NNW 04:09:39 74° ENE 04:15:22 10° SE
H-2A R/B 4.2 04:07:04 10° NNE 04:11:05 34° E 04:15:05 10° SSE
Cosmos 1500 Rocket 4.5 04:08:52 10° N 04:13:12 48° ENE 04:17:28 10° SSE
Cosmos 1339 Rocket 4.4 04:15:29 26° S 04:19:03 80° E 04:25:13 10° NNE
COSMOS 2441 4.4 04:19:53 10° N 04:24:24 67° NW 04:24:24 67° NW
Cosmos 1743 Rocket 3.8 04:21:31 10° N 04:25:51 68° ENE 04:30:09 10° SSE
Cosmos 2263 4.3 04:21:18 14° NNW 04:26:21 73° ENE 04:31:59 10° SE
STARLINK-1158 4.4 04:31:58 38° ENE 04:31:58 38° ENE 04:34:13 10° E
Cosmos 2100 Rocket 4.5 04:27:22 10° N 04:33:33 60° ENE 04:39:37 10° SSE
NOSS 2-1 (E) 3.7 04:35:42 52° NNE 04:35:42 52° NNE 04:38:58 10° NE
ARIANE 5 R/B 4.5 04:31:49 10° NNW 04:33:04 14° NNW 04:33:04 14° NNW
Cosmos 2333 Rocket 3.9 04:37:44 18° NNW 04:37:58 18° NNW 04:41:48 10° NNE
ADEOS 3.5 04:33:30 10° N 04:38:42 66° WNW 04:39:45 53° WSW
STARLINK-1194 4.5 04:39:49 32° ENE 04:39:49 32° ENE 04:41:38 10° E
USA 215 3.4 04:32:29 10° ENE 04:38:57 63° NNW 04:41:24 39° W
Meteor 2-3 Rocket 3.6 04:34:27 10° NNW 04:40:12 73° W 04:45:58 10° S
Cosmos 407 Rocket 4.4 04:36:30 10° S 04:41:36 49° ESE 04:46:40 10° NNE
STARLINK-1177 4.5 04:43:31 31° ENE 04:43:31 31° ENE 04:45:14 10° E
STARLINK-1173 4.5 04:43:34 31° ENE 04:43:34 31° ENE 04:45:18 10° E
Cosmos 1842 Rocket 3.6 04:40:30 32° S 04:42:33 85° E 04:47:05 10° NNE
STARLINK-1167 4.4 04:44:01 32° ENE 04:44:01 32° ENE 04:45:47 10° E
Cosmos 1459 Rocket 4.4 04:38:04 10° N 04:44:14 65° ENE 04:50:26 10° SSE
Cosmos 921 Rocket 3.1 04:40:31 10° NNW 04:44:59 75° ENE 04:49:21 10° SSE
BREEZE M DEB (TANK) 2.6 04:45:29 71° S 04:45:32 72° S 04:51:31 10° E
Cosmos 1484 Rocket 3.6 04:42:35 10° NNE 04:46:28 51° E 04:50:21 10° S
STARLINK-1136 4.1 04:48:47 36° ENE 04:48:47 36° ENE 04:50:42 10° E
STARLINK-1170 4.1 04:53:19 35° ENE 04:53:19 35° ENE 04:55:05 10° E
STARLINK-1070 4.5 04:54:21 25° SSE 04:54:31 26° SE 04:57:03 10° E
STARLINK-1124 4.2 04:54:42 29° SSE 04:54:44 29° SSE 04:57:21 10° E
STARLINK-1066 4.5 04:54:55 25° SSE 04:55:07 26° SE 04:57:37 10° E
STARLINK-1081 4.5 04:55:08 26° SSE 04:55:20 26° SE 04:57:50 10° E
STARLINK-1069 4.4 04:55:34 26° SSE 04:55:47 26° SE 04:58:18 10° E
STARLINK-1085 4.4 04:55:46 26° SSE 04:55:59 26° SE 04:58:31 10° E
STARLINK-1086 4.4 04:56:03 26° SSE 04:56:16 26° SE 04:58:48 10° E
STARLINK-1095 4.4 04:56:13 26° SSE 04:56:27 26° SE 04:58:59 10° E
STARLINK-1077 4.4 04:56:24 26° SSE 04:56:39 26° SE 04:59:10 10° E
STARLINK-1075 4.4 04:56:39 26° SSE 04:56:54 26° SE 04:59:27 10° E
STARLINK-1093 4.4 04:56:52 26° SSE 04:57:07 26° SE 04:59:40 10° E
STARLINK-1074 4.4 04:57:06 26° SSE 04:57:23 27° SE 04:59:55 10° E
STARLINK-1087 4.4 04:57:18 26° SSE 04:57:35 27° SE 05:00:07 10° E
STARLINK-1088 4.4 04:57:29 26° SSE 04:57:46 27° SE 05:00:18 10° E
STARLINK-1115 4.4 04:57:44 26° SSE 04:58:01 27° SE 05:00:35 10° E
STARLINK-1076 4.4 04:57:57 26° SSE 04:58:16 27° SE 05:00:48 10° E
Meteor 2-10 Rocket 3.9 04:58:00 39° W 04:58:25 40° WNW 05:03:15 10° N
STARLINK-1092 4.3 04:58:10 26° SSE 04:58:28 27° SE 05:01:01 10° E
STARLINK-1080 4.3 04:58:22 26° SSE 04:58:41 27° SE 05:01:14 10° E
STARLINK-1090 4.3 04:58:36 27° SSE 04:58:56 27° SE 05:01:29 10° E
STARLINK-1089 4.3 04:58:51 27° SSE 04:59:11 27° SE 05:01:45 10° E
STARLINK-1107 4.3 04:59:03 27° SSE 04:59:23 27° SE 05:01:56 10° E
STARLINK-1109 4.3 04:59:14 27° SSE 04:59:35 28° SE 05:02:09 10° E
STARLINK-1091 4.3 04:59:29 27° SSE 04:59:49 28° SSE 05:02:24 10° E
STARLINK-1072 4.3 04:59:39 27° SSE 05:00:01 28° SSE 05:02:35 10° E
Cosmos 2221 2.4 04:56:38 16° SSW 05:00:02 84° WNW 05:04:22 10° N
STARLINK-1096 4.3 04:59:53 27° SSE 05:00:14 28° SSE 05:02:48 10° E
STARLINK-1079 4.3 05:00:06 27° SSE 05:00:28 28° SE 05:03:03 10° E
SJ-6F 4.5 04:56:41 10° N 05:00:42 54° WNW 05:01:14 50° W
STARLINK-1116 4.3 05:00:20 27° SSE 05:00:43 28° SSE 05:03:18 10° E
Cosmos 614 Rocket 4.1 04:55:36 10° SSW 05:00:45 76° ESE 05:05:59 10° NNE
COSMO-SKYMED 1 2.5 04:56:41 10° SSE 05:01:02 87° ENE 05:05:24 10° NNW
STARLINK-1094 4.3 05:00:46 27° SSE 05:01:10 28° SSE 05:03:45 10° E
STARLINK-1117 4.3 05:00:58 27° SSE 05:01:22 28° SSE 05:03:58 10° E
STARLINK-1078 4.3 05:01:12 27° SSE 05:01:37 28° SSE 05:04:13 10° E
STARLINK-1108 4.2 05:01:25 27° SSE 05:01:50 29° SSE 05:04:26 10° E
STARLINK-1071 4.2 05:01:37 27° SSE 05:02:02 28° SSE 05:04:37 10° E
STARLINK-1110 4.2 05:01:52 27° SSE 05:02:19 29° SSE 05:04:54 10° E
Cosmos 2237 Rocket 3.4 05:01:42 23° NW 05:02:26 23° NW 05:06:53 10° NNE
STARLINK-1122 4.2 05:02:15 27° SSE 05:02:42 29° SSE 05:05:19 10° E
STARLINK-1126 4.2 05:02:29 27° SSE 05:02:56 29° SSE 05:05:32 10° E
STARLINK-1162 3.1 05:02:49 59° NNW 05:03:02 61° N 05:06:14 10° E
STARLINK-1082 4.2 05:02:43 28° SSE 05:03:10 29° SSE 05:05:47 10° E
STARLINK-1100 4.2 05:02:56 28° SSE 05:03:24 29° SSE 05:06:01 10° E
STARLINK-1083 4.2 05:03:09 28° SSE 05:03:37 29° SSE 05:06:15 10° E
STARLINK-1125 4.2 05:03:21 28° SSE 05:03:50 29° SSE 05:06:27 10° E
STARLINK-1157 3.1 05:04:49 58° NNW 05:05:06 62° N 05:08:20 10° E
Cosmos 1190 Rocket 4.4 05:01:21 10° S 05:06:34 66° ESE 05:11:51 10° NNE
PSLV R/B 4.4 05:03:16 10° NNE 05:06:57 54° E 05:10:41 10° S
STARLINK-1159 3.1 05:06:59 56° NNW 05:07:22 63° N 05:10:36 10° E
CZ-4C R/B 3.4 05:07:04 24° WNW 05:09:32 32° NNW 05:15:32 10° NE
STARLINK-1171 3.1 05:09:13 53° NW 05:09:42 63° N 05:12:56 10° E
Cosmos 2219 Rocket 4.1 05:08:25 13° NW 05:09:55 14° NNW 05:12:46 10° N
Cosmos 1238 Rocket 4.0 05:03:59 10° N 05:10:14 73° ENE 05:15:31 10° SSE
Cosmos 1802 Rocket 4.1 05:03:46 10° N 05:10:15 82° E 05:16:41 10° SSE
STARLINK-1155 3.1 05:11:18 51° NW 05:11:52 64° N 05:15:06 10° E
Meteor 1-27 4.1 05:07:12 10° SSW 05:12:45 70° WNW 05:18:19 10° N
STARLINK-1166 3.1 05:13:32 48° NW 05:14:12 64° N 05:17:26 10° E
Meteor 1-31 Rocket 2.8 05:11:19 10° N 05:15:03 53° WNW 05:16:45 28° SW
STARLINK-1179 2.5 05:15:26 63° N 05:15:33 64° N 05:18:12 10° E
STARLINK-1176 2.5 05:15:58 63° NNW 05:16:08 65° N 05:18:48 10° E
STARLINK-1165 3.1 05:15:41 46° NW 05:16:27 65° N 05:19:41 10° E
Cosmos 1238 4.1 05:14:46 11° S 05:17:40 88° WNW 05:20:55 10° N
STARLINK-1169 3.1 05:17:50 43° NW 05:18:41 66° N 05:21:56 10° E
STARLINK-1178 3.1 05:20:00 41° WNW 05:20:57 67° N 05:24:11 10° E
Cosmos 1943 Rocket 2.9 05:19:34 26° WNW 05:21:00 29° WSW 05:25:40 10° SSW
CZ-4B R/B 2.6 05:18:09 10° N 05:21:48 55° WNW 05:24:17 18° SW
STARLINK-1120 3.1 05:22:04 39° WNW 05:23:06 68° N 05:26:20 10° E
Meteor 2-2 Rocket 4.3 05:17:40 10° SSW 05:23:43 83° WNW 05:29:47 10° NNE
Lacrosse 5 3.0 05:24:33 22° WSW 05:25:01 23° SW 05:28:54 10° S
STARLINK-1131 3.1 05:24:16 36° WNW 05:25:23 69° N 05:28:38 10° E
STARLINK-1190 3.1 05:26:30 34° WNW 05:27:44 70° NNE 05:30:58 10° E
ATLAS CENTAUR R/B 2.8 05:28:31 22° WNW 05:30:00 26° NNW 05:33:42 10° NNE
ALOS 2.2 05:28:25 10° NNE 05:33:07 82° WNW 05:37:48 10° SSW
Cosmos 2016 Rocket 4.0 05:27:04 10° N 05:33:21 83° W 05:39:39 10° S
NOSS 2-1 (C) 4.4 05:33:23 22° WNW 05:34:37 27° NNW 05:38:13 10° NNE
CZ-2C R/B 3.3 05:33:24 10° N 05:37:52 30° WNW 05:41:04 16° WSW
NOSS 2-1 (D) 4.5 05:37:22 21° WNW 05:38:45 26° NNW 05:42:19 10° NNE
Cosmos 1869 3.5 05:38:26 10° SSW 05:42:16 45° WNW 05:46:06 10° N
Cosmos 1400 Rocket 3.3 05:38:20 10° S 05:42:19 65° E 05:46:25 10° NNE
FENGYUN 3A 3.6 05:37:31 10° NNE 05:42:59 76° WNW 05:48:24 10° SSW
NOAA 6 4.5 05:38:09 10° NNE 05:43:20 66° ESE 05:48:28 10° S
Cosmos 1633 3.0 05:40:03 10° NNW 05:43:27 37° W 05:46:48 10° SSW
Sich 1 2.9 05:39:19 10° NNW 05:43:34 63° W 05:47:49 10° S
ATLAS 2AS CENTAUR R/B 3.4 05:35:50 10° NW 05:43:34 61° NE 05:50:41 10° ESE
Cosmos 1805 Rocket 3.7 05:39:33 10° NNW 05:43:44 47° W 05:47:53 10° SSW
STARLINK-1118 2.7 05:42:59 23° SW 05:44:18 57° SSE 05:46:46 10° ENE
Meteor PRIRODA 4.1 05:42:03 10° N 05:45:33 39° WNW 05:49:00 10° SW
IDEFIX/ARIANE 42P 4.3 05:43:00 10° NNW 05:45:35 14° NW 05:46:23 13° WNW
SL-16 R/B 3.3 05:43:29 17° W 05:46:23 26° NW 05:51:06 10° NNE
H-2A R/B 3.3 05:42:35 10° N 05:46:32 33° WNW 05:50:33 10° SW
Cosmos 1763 Rocket 4.1 05:43:00 10° NNW 05:48:19 62° ENE 05:53:35 10° SE
ADEOS Rocket 3.3 05:42:14 10° SSE 05:48:37 88° WSW 05:55:49 10° NNW
SKYMED 2 4.2 05:45:21 10° SSW 05:49:16 33° W 05:53:14 10° NNW
Cosmos 2084 3.8 05:45:46 10° SW 05:50:14 71° SE 05:54:43 10° NE
Cosmos 2233 Rocket 4.3 05:44:13 10° N 05:50:30 74° ENE 05:56:48 10° SSE
STARLINK-1129 3.0 05:48:55 20° WNW 05:51:06 83° NNE 05:54:24 10° ESE
TELKOM 3 3.1 05:50:43 27° WSW 05:51:36 48° SSW 05:53:39 10° ESE
Cosmos 2369 Rocket 3.3 05:48:47 10° NW 05:53:08 23° WSW 05:57:27 10° SSW
STARLINK-1134 3.0 05:51:01 19° WNW 05:53:17 84° NNE 05:56:36 10° ESE
H-2A R/B 4.0 05:51:44 10° NNE 05:55:23 44° E 05:58:56 10° S
STARLINK-1135 3.0 05:53:25 18° WNW 05:55:48 86° NNE 05:59:05 10° ESE
Aureole 2 Rocket 4.5 05:57:41 10° SW 05:57:41 10° SW 05:57:44 10° SW
STARLINK-1141 3.0 05:55:41 17° WNW 05:58:08 87° NNE 06:01:26 10° ESE
STARLINK-1140 3.0 05:57:57 16° WNW 06:00:30 89° NNE 06:03:48 10° ESE
Cosmos 2173 Rocket 4.4 05:55:47 10° NNW 06:01:33 39° W 06:07:13 10° SSW
Cosmos 1656 Rocket 4.2 05:56:31 10° NW 06:01:44 38° WSW 06:06:55 10° S
STARLINK-1149 2.5 05:59:44 17° WNW 06:01:44 78° SSW 06:04:29 10° ESE
Cosmos 1603 4.0 05:56:52 10° SW 06:02:22 47° NW 06:07:51 10° NNE
STARLINK-1156 3.0 06:00:12 15° WNW 06:02:50 89° SSW 06:06:08 10° ESE
STARLINK-1148 3.0 06:02:29 14° WNW 06:05:13 87° SSW 06:08:31 10° ESE
STARLINK-1153 2.6 06:03:20 15° WNW 06:05:41 81° SSW 06:08:37 10° ESE
STARLINK-1180 2.7 06:03:32 15° WNW 06:05:53 81° SSW 06:08:50 10° ESE
Cosmos 1943 3.3 06:00:39 10° SW 06:06:09 53° NW 06:11:42 10° NNE
Okean O Rocket 1.6 06:01:54 10° NNE 06:06:18 84° WNW 06:10:39 10° SSW
STARLINK-1174 2.7 06:03:59 15° WNW 06:06:22 80° SSW 06:09:17 10° ESE
STARLINK-1139 2.7 06:04:13 15° WNW 06:06:35 80° SSW 06:09:31 10° ESE
STARLINK-1133 2.7 06:04:26 14° WNW 06:06:48 80° SSW 06:09:44 10° ESE
STARLINK-1151 2.7 06:04:39 14° WNW 06:07:03 80° SSW 06:09:58 10° ESE
CZ-4B DEB 4.2 06:02:00 10° N 06:07:27 64° WNW 06:12:50 10° SSW
STARLINK-1158 3.0 06:04:43 14° WNW 06:07:33 85° SSW 06:10:52 10° ESE
STARLINK-1160 2.7 06:05:18 14° WNW 06:07:43 79° SSW 06:10:38 10° ESE
STARLINK-1161 2.7 06:05:30 14° WNW 06:07:55 79° SSW 06:10:51 10° ESE
STARLINK-1145 2.7 06:05:44 14° WNW 06:08:10 79° SSW 06:11:05 10° ESE
STARLINK-1172 2.7 06:05:55 14° WNW 06:08:21 78° SSW 06:11:17 10° ESE
Shenzhou-11 Module 4.3 06:07:08 10° SSW 06:08:38 14° S 06:10:09 10° SE
STARLINK-1182 2.7 06:06:22 14° WNW 06:08:50 78° SSW 06:11:45 10° ESE
STARLINK-1164 2.7 06:06:35 14° WNW 06:09:03 78° SSW 06:11:59 10° ESE
STARLINK-1168 2.7 06:06:48 14° WNW 06:09:16 78° SSW 06:12:12 10° ESE
STARLINK-1183 2.7 06:07:27 13° WNW 06:09:57 77° SSW 06:12:52 10° ESE
STARLINK-1181 2.7 06:07:39 13° WNW 06:10:10 77° SSW 06:13:06 10° ESE
STARLINK-1196 2.7 06:08:18 13° WNW 06:10:51 76° SSW 06:13:47 10° ESE
STARLINK-1186 2.7 06:08:44 13° WNW 06:11:17 76° SSW 06:14:12 10° ESE
STARLINK-1185 2.7 06:08:57 13° WNW 06:11:31 75° SSW 06:14:26 10° ESE
STARLINK-1175 2.7 06:09:10 13° WNW 06:11:45 75° SSW 06:14:40 10° ESE
STARLINK-1147 2.7 06:09:24 13° WNW 06:11:59 75° SSW 06:14:53 10° ESE
STARLINK-1132 2.6 06:09:33 13° WNW 06:11:59 68° SSW 06:14:46 10° ESE
STARLINK-1146 2.7 06:09:35 13° WNW 06:12:11 75° SSW 06:15:07 10° ESE
Cosmos 1151 Rocket 3.2 06:07:59 10° S 06:12:18 78° E 06:16:41 10° NNE
SMAP 3.9 06:07:46 10° NNE 06:12:22 56° E 06:16:57 10° S
STARLINK-1152 2.7 06:09:51 13° WNW 06:12:26 75° SSW 06:15:22 10° ESE
STARLINK-1195 2.7 06:10:03 12° WNW 06:12:39 74° SSW 06:15:35 10° ESE
STARLINK-1137 2.7 06:10:16 12° WNW 06:12:52 74° SSW 06:15:47 10° ESE
STARLINK-1142 2.7 06:10:29 12° WNW 06:13:06 74° SSW 06:16:01 10° ESE
STARLINK-1127 2.7 06:10:40 12° WNW 06:13:19 74° SSW 06:16:13 10° ESE
STARLINK-1184 2.7 06:10:54 12° WNW 06:13:32 73° SSW 06:16:28 10° ESE
STARLINK-1193 2.7 06:11:07 12° WNW 06:13:45 73° SSW 06:16:41 10° ESE
STARLINK-1194 2.7 06:11:21 12° WNW 06:13:59 73° SSW 06:16:55 10° ESE
CZ-4B R/B 3.1 06:08:38 10° NNE 06:14:00 83° WNW 06:19:17 10° SSW
STARLINK-1150 2.7 06:11:45 12° WNW 06:14:15 66° SSW 06:17:02 10° ESE
STARLINK-1163 2.7 06:12:58 12° WNW 06:15:31 65° SSW 06:18:18 10° ESE
STARLINK-1098 3.9 06:13:01 10° WSW 06:17:05 67° SSE 06:21:09 10° ENE
STARLINK-1177 2.7 06:14:39 11° WNW 06:17:15 63° SSW 06:20:01 10° ESE
STARLINK-1173 2.7 06:14:42 11° WNW 06:17:20 63° SSW 06:20:06 10° ESE
Cosmos 1862 4.1 06:14:17 10° NNW 06:17:44 29° W 06:21:12 10° SSW
STARLINK-1167 2.7 06:15:07 11° WNW 06:17:46 63° SSW 06:20:32 10° ESE
Helios 1A Rocket 3.0 06:15:17 10° NNE 06:19:28 89° WNW 06:23:36 10° SSW
Cosmos 1328 Rocket 3.6 06:15:49 10° S 06:20:17 86° WNW 06:24:45 10° N
Cosmos 1484 Rocket 4.2 06:17:44 10° NNW 06:20:34 19° WNW 06:23:25 10° WSW
STARLINK-1123 3.8 06:17:27 10° WSW 06:21:31 71° SSE 06:25:35 10° ENE
USA 215 3.7 06:15:12 10° E 06:21:33 54° N 06:27:53 10° WNW
Cosmos 1140 Rocket 3.9 06:16:58 10° SW 06:21:57 42° WNW 06:26:57 10° NNE
STARLINK-1136 2.8 06:19:55 10° WNW 06:22:41 58° SSW 06:25:26 10° SE
Cosmos 1954 Rocket 4.2 06:17:31 10° SW 06:22:45 57° WNW 06:28:02 10° NNE
Cosmos 407 Rocket 4.3 06:19:03 10° WSW 06:23:48 33° NW 06:28:34 10° N
GEOS 3 Rocket 4.0 06:18:48 10° NE 06:23:54 50° NW 06:29:02 10° WSW
STARLINK-1170 2.8 06:24:00 10° WNW 06:26:35 52° SSW 06:29:09 10° SE
STARLINK-1097 3.8 06:22:40 10° WSW 06:26:46 74° SSE 06:30:51 10° ENE
Cosmos 1340 2.8 06:23:42 10° NNW 06:27:22 50° W 06:31:00 10° S
Cosmos 1850 Rocket 4.3 06:22:37 10° SSW 06:27:55 77° ESE 06:33:12 10° NNE
STARLINK-1070 2.7 06:26:33 10° WSW 06:29:30 81° NNW 06:32:27 10° ENE
STARLINK-1124 2.7 06:26:48 10° W 06:29:43 74° NNW 06:32:39 10° ENE
